Lid_Strength_Index
1 1 4 7 11 11 15 13 9 10 9 6 6 7 8 7 9 12 3 0 0 0 -0 -0 -1 -1 -1 -1 -1 -1 -1 -1 -1 -1 -1 -1 -1 -1 -1 -1 -1 -1 -1 -1 -1 -1 -1 -1 -1
5 5 7 10 11 14 14 11 10 9 7 6 6 6 7 8 4 4 5 0 -0 -0 0 -0 -1 -1 -1 -1 -1 -1 -1 -1 -1 -1 -1 -1 -1 -1 -1 -1 -1 -1 -1 -1 -1 -1 -1 -1 -1
3 8 10 12 13 15 13 10 9 8 6 6 7 5 6 7 4 4 2 0 -0 -0 -0 -0 -1 -1 -1 -1 -1 -1 -1 -1 -1 -1 -1 -1 -1 -1 -2 -2 -1 -1 -1 -1 -1 -1 -1 -2 -2
7 9 11 13 14 14 10 10 8 8 6 5 6 8 5 3 3 3 0 0 0 1 -0 -1 -1 -1 -1 -1 -1 -1 -1 -1 -1 -1 -1 -1 -1 -2 -2 -2 -1 -1 -1 -1 -1 -1 -2 -3 -3
10 12 14 16 16 10 9 8 7 8 7 7 6 8 7 3 2 2 1 0 1 1 0 -0 -1 -1 -1 -1 -1 -1 -1 -1 -1 -1 -1 -1 -1 -2 -2 -2 -1 -1 -1 -1 -2 -3 -3 -3 -3
11 13 16 17 15 10 9 7 7 8 7 6 7 7 6 2 3 3 1 1 -0 0 -0 -0 -1 -1 -1 -1 -1 -1 -1 -1 -1 -2 -2 -1 -2 -2 -2 -2 -1 -1 -1 -2 -3 -3 -3 -3 -2
12 14 16 16 15 12 9 7 8 7 8 7 5 8 6 4 4 3 2 0 0 -0 -0 -0 -0 -1 -1 -1 -1 -1 -1 -2 -2 -2 -2 -2 -2 -2 -2 -2 -2 -2 -2 -2 -2 -2 -2 -2 -2
11 13 16 14 15 14 8 8 6 7 7 4 4 8 8 4 3 3 1 1 1 0 0 0 0 0 -0 -0 -1 -1 -2 -2 -2 -2 -2 -2 -2 -2 -1 -2 -1 -1 -2 -2 -1 -2 -2 -1 -1
12 14 16 14 14 10 8 9 6 4 6 5 4 4 3 2 2 2 2 2 1 1 1 0 0 0 0 0 -0 -1 -1 -1 -2 -1 -2 -1 -1 -1 -1 -1 -1 -1 -1 -1 -1 -1 0 1 1
12 15 14 12 12 9 8 8 7 7 7 6 5 3 3 3 3 3 3 3 3 2 1 0 0 0 0 -0 0 0 -0 -0 -0 -0 -0 -0 -0 -1 -1 -1 -1 -0 0 -0 -0 1 2 3 4
13 13 12 11 10 9 8 8 6 8 9 7 6 5 4 4 3 3 3 3 3 2 1 0 0 0 0 -0 0 0 -0 0 -0 -0 0 0 0 0 1 2 3 3 2 4 3 4 4 5 4
13 11 11 10 10 8 8 7 8 7 7 4 4 4 4 4 4 4 3 3 3 3 1 1 0 0 0 0 -0 -0 -0 0 0 -0 1 -0 0 2 2 3 4 4 4 4 5 5 4 5 4
13 11 11 11 11 8 6 7 7 7 5 5 4 4 4 4 4 3 3 2 2 3 2 1 0 0 -0 0 -0 -0 -0 -0 -0 1 -0 1 2 2 3 5 5 5 4 4 5 5 6 6 6
10 11 10 11 11 12 8 8 7 6 4 5 4 5 4 4 4 4 3 3 3 3 2 1 0 0 0 0 0 1 1 0 1 0 -0 2 3 3 4 4 4 5 5 5 6 6 6 7 6
10 11 11 11 12 9 6 10 9 5 5 6 5 5 4 4 4 4 4 3 2 3 2 1 1 0 1 0 0 1 1 0 1 1 2 3 3 3 4 4 5 5 5 6 6 7 5 5 5
11 12 13 12 11 8 9 11 8 5 6 6 6 5 4 4 3 3 3 5 3 3 3 2 0 1 1 1 1 2 1 1 2 3 3 3 3 3 4 5 5 6 6 6 6 5 6 6 5
12 14 13 11 11 8 10 12 10 7 6 7 6 5 5 5 4 3 2 3 4 3 2 3 2 2 2 2 2 3 3 4 4 3 3 3 3 4 5 5 6 6 6 6 6 6 6 5 5
15 14 13 13 11 11 12 10 10 9 6 6 6 6 5 5 5 3 2 2 2 2 2 2 3 2 3 3 4 4 4 4 4 4 3 3 4 4 5 6 7 6 5 5 5 5 4 5 5
11 12 12 11 10 11 12 12 10 9 8 7 7 6 6 6 4 3 3 2 2 1 1 1 3 3 3 4 4 5 5 4 4 3 3 4 4 5 6 6 6 5 5 5 4 5 5 4 4
11 12 12 11 10 11 12 12 10 8 8 7 7 7 6 6 5 4 3 3 2 2 2 2 2 2 3 3 3 3 3 4 3 3 3 4 5 6 5 5 5 5 4 4 5 4 5 4 4
12 13 12 12 11 11 12 13 10 9 8 7 7 6 6 6 6 5 4 3 3 2 2 3 2 2 2 3 3 4 4 4 4 4 6 7 6 5 4 4 4 4 4 4 4 5 5 5 5
13 10 10 11 12 15 13 16 13 10 10 9 8 7 7 6 5 5 4 4 3 3 3 3 3 3 3 3 4 4 4 5 5 7 8 7 5 4 4 3 3 3 4 5 5 4 5 6 6
11 9 10 11 13 15 14 15 13 11 12 10 9 8 7 6 5 5 4 4 4 5 5 5 5 4 4 4 4 5 8 8 9 9 7 7 6 5 4 5 5 5 5 5 5 5 5 6 6
8 10 12 13 14 17 14 15 15 13 11 10 9 8 7 6 6 4 3 4 5 5 6 7 7 8 8 8 8 8 8 8 8 8 8 7 7 6 5 5 6 6 6 6 5 5 6 6 5
11 13 17 17 17 17 14 15 13 11 9 8 8 8 7 6 6 5 5 5 6 7 7 7 8 9 9 8 7 7 7 8 8 8 7 7 7 7 6 6 6 6 6 5 5 6 5 6 7
12 13 16 19 18 16 14 15 12 9 8 7 7 7 6 6 6 5 5 6 7 7 7 8 8 8 7 7 7 8 8 7 8 7 6 7 7 6 6 6 6 6 6 5 6 7 7 7 8
12 14 13 15 16 17 15 13 10 10 10 9 8 8 7 6 6 6 6 6 7 7 8 7 7 7 7 7 8 8 7 7 7 7 6 7 6 5 6 6 6 6 6 7 7 8 8 8 9
11 10 14 16 18 19 16 15 13 11 11 10 9 8 7 6 6 6 6 6 7 7 6 6 7 7 7 8 7 7 8 7 7 6 6 6 6 6 6 6 6 6 6 7 8 8 8 8 9
12 13 13 14 15 17 18 16 11 9 9 10 9 8 7 7 7 7 7 7 6 6 6 7 7 7 7 8 8 8 8 7 7 6 6 6 6 6 7 6 6 6 6 7 8 8 8 8 8
11 12 13 15 15 15 16 15 10 9 8 8 8 7 7 6 7 7 7 5 6 6 6 7 7 7 7 8 8 8 7 6 6 6 6 6 6 6 6 6 6 5 6 6 7 7 7 7 8